Regional Weather Roundup
Issued by NWS

Home | Current Version | Previous Version | Graphics & Text | Print | Product List | Glossary On
Versions: 1 2 3 4 5 6 7 8 9 10 11 12 13 14 15 16 17 18 19 20 21 22 23 24 25 26 27 28 29 30 31 32 33 34 35 36 37 38 39 40 41 42 43 44 45 46 47 48 49 50
768
ASUS43 KBIS 221310
RWRND

NORTH DAKOTA REGIONAL WEATHER ROUNDUP
NATIONAL WEATHER SERVICE BISMARCK ND
800 AM CDT WED MAR 22 2017

NOTE: "FAIR" INDICATES FEW OR NO CLOUDS BELOW 12,000 FEET WITH NO
SIGNIFICANT WEATHER AND/OR OBSTRUCTIONS TO VISIBILITY.


NDZ001>003-009>011-017-221400-
NORTHWEST NORTH DAKOTA

CITY           SKY/WX    TMP DP  RH WIND       PRES   REMARKS
WILLISTON      CLOUDY    31  22  69 SE17      29.98F WCI  19
MINOT          CLOUDY    24  17  74 SE22G29   30.13F WCI   9
MINOT AFB      CLOUDY    23  18  80 SE21      30.12F WCI   8
$$

NDZ018>021-031>035-040>046-221400-
SOUTHWEST NORTH DAKOTA

CITY           SKY/WX    TMP DP  RH WIND       PRES   REMARKS
BISMARCK       FAIR      26  18  71 SE18      30.16F WCI  13
DICKINSON      CLOUDY    27  21  78 SE24G31   29.96F WCI  12
GARRISON         N/A     22  17  81 SE16      30.12S WCI   8
HETTINGER ARPT CLOUDY    27  22  81 SE16G26   30.00F WCI  15
$$

NDZ004>008-012>016-024-026-027-054-221400-
NORTHEAST NORTH DAKOTA

CITY           SKY/WX    TMP DP  RH WIND       PRES   REMARKS
GRAND FORKS    CLOUDY    21   5  50 SE15      30.42F WCI   8
GRND FRKS AFB  CLOUDY    20  10  65 S15       30.40F WCI   6
DEVILS LAKE    CLOUDY    20  13  74 SE17G23   30.28F WCI   5
$$

NDZ022-023-025-028>030-036>039-047>053-221400-
SOUTHEAST NORTH DAKOTA

CITY           SKY/WX    TMP DP  RH WIND       PRES   REMARKS
FARGO          CLOUDY    22   9  57 SE15      30.43F WCI   9
JAMESTOWN      CLOUDY    22  15  75 SE18G26   30.29F WCI   7
$$





USA.gov is the U.S. government's official web portal to all federal, state and local government web resources and services.